Tracking 18785 objects as of 21-July-2017
HD Live streaming from Space Station
objects crossing your sky now
MAYAK may become the brightest orbital object in the night sky!
Where is MAYAK now?
How to spot MAYAK

DSAT

Track DSAT now!
10-day predictions
DSAT is classified as:


NORAD ID: 42794
Int'l Code: 2017-036AF
Perigee: 502.2 km
Apogee: 517.0 km
Inclination: 97.4 °
Period: 94.7 minutes
Semi major axis: 6880 km
RCS: Unknown
Launch date: June 23, 2017
Source: Italy (IT)
Launch site: SIRHARIKOTA (SRI)
Uplink (MHz):
Downlink (MHz): 437.505
Beacon (MHz): 437.505
Mode: 4800bps GMSK CW
Call sign: U1-DSAT-U1
Status: Active

Your satellite tracking list
Your tracking list is empty





NASA's NSSDC Master Catalog

Two Line Element Set (TLE):
1 42794U 17036AF  17201.50577536 +.00001081 +00000-0 +51684-4 0  9990
2 42794 097.4474 260.9689 0010749 149.5725 210.6136 15.21114495004081
Source of the keplerian elements: AFSPC